Location: Unspecified
(43.4354°N, 0.0000°E)
Time: 13:36:20
(UTC+00:00)

Vanguard 2 Rocket - Pass Details

Date: 21 June 2019
Orbit: 554 x 3326 km, 32.9° (Epoch: 22 July)

Event Time Altitude Azimuth Distance (km) Brightness Sun altitude
Rises 00:37:06 0° 261° (W) 4,963 10.5 -22.6°
Reaches altitude 10° 00:39:56 10° 257° (WSW) 4,282 10.1 -22.6°
Maximum altitude 00:52:08 55° 184° (S) 3,044 9.1 -22.1°
Drops below altitude 10° 01:10:42 10° 114° (ESE) 6,249 11.1 -21.3°
Sets 01:15:53 0° 111° (ESE) 7,312 11.5 -21.0°
